• En España
  • Lista de países
  • Para 7 días
  • Temperatura del agua
  • Mapa Satelital
  • El tiempo en el mapa
  • Informadores
  • user-avatar
    Iniciar sesión

    Tiempo cada hora Tirana

    Hoy, 17 Octubre, Miércoles

    Tiempo Temperatura Precipitaciones Viento Presión Humedad
    00:00 +19°C° 0 mm 1 mps 757 mmHg 64%
    01:00 +19°C° 0 mm 1 mps 757 mmHg 63%
    02:00 +19°C° 0 mm 1 mps 756 mmHg 64%
    03:00 +18°C° 0 mm 1 mps 756 mmHg 64%
    04:00 +17°C° 0 mm 2 mps 756 mmHg 64%
    05:00 +18°C° 0 mm 2 mps 756 mmHg 64%
    06:00 +18°C° 0 mm 2 mps 756 mmHg 63%
    07:00 +18°C° 0 mm 2 mps 756 mmHg 62%
    08:00 +22°C° 0 mm 1 mps 756 mmHg 54%
    09:00 +24°C° 0 mm 1 mps 756 mmHg 47%
    10:00 +27°C° 0 mm 1 mps 755 mmHg 40%
    11:00 +27°C° 0 mm 1 mps 755 mmHg 37%
    12:00 +28°C° 0 mm 2 mps 755 mmHg 35%
    13:00 +29°C° 0 mm 2 mps 755 mmHg 33%
    14:00 +28°C° 0 mm 2 mps 754 mmHg 37%
    15:00 +27°C° 0 mm 2 mps 754 mmHg 40%
    16:00 +26°C° 0 mm 2 mps 754 mmHg 44%
    17:00 +24°C° 0 mm 2 mps 754 mmHg 50%
    18:00 +22°C° 0 mm 1 mps 754 mmHg 56%
    19:00 +21°C° 0 mm 1 mps 754 mmHg 62%
    20:00 +20°C° 0 mm 1 mps 754 mmHg 61%
    21:00 +20°C° 0 mm 1 mps 754 mmHg 59%
    22:00 +20°C° 0 mm 1 mps 754 mmHg 58%
    23:00 +20°C° 0 mm 1 mps 754 mmHg 57%

    Mañana, 18 Octubre, Jueves

    Tiempo Temperatura Precipitaciones Viento Presión Humedad
    00:00 +19°C° 0 mm 1 mps 754 mmHg 57%
    01:00 +19°C° 0 mm 1 mps 754 mmHg 56%
    02:00 +19°C° 0 mm 1 mps 754 mmHg 56%
    03:00 +19°C° 0 mm 1 mps 754 mmHg 56%
    04:00 +17°C° 0 mm 2 mps 754 mmHg 56%
    05:00 +18°C° 0 mm 2 mps 754 mmHg 55%
    06:00 +18°C° 0 mm 2 mps 754 mmHg 55%
    07:00 +18°C° 0 mm 2 mps 754 mmHg 55%
    08:00 +22°C° 0 mm 1 mps 754 mmHg 48%
    09:00 +25°C° 0 mm 1 mps 754 mmHg 40%
    10:00 +27°C° 0 mm 1 mps 754 mmHg 33%
    11:00 +28°C° 0 mm 1 mps 753 mmHg 32%
    12:00 +28°C° 0 mm 2 mps 753 mmHg 30%
    13:00 +29°C° 0 mm 2 mps 753 mmHg 28%
    14:00 +28°C° 0 mm 2 mps 753 mmHg 33%
    15:00 +27°C° 0 mm 2 mps 752 mmHg 37%
    16:00 +26°C° 0 mm 2 mps 752 mmHg 41%
    17:00 +24°C° 0 mm 2 mps 753 mmHg 47%
    18:00 +22°C° 0 mm 1 mps 753 mmHg 54%
    19:00 +20°C° 0 mm 1 mps 753 mmHg 60%
    20:00 +20°C° 0 mm 1 mps 754 mmHg 59%
    21:00 +20°C° 0 mm 1 mps 754 mmHg 58%
    22:00 +20°C° 0 mm 1 mps 754 mmHg 56%
    23:00 +19°C° 0 mm 1 mps 754 mmHg 55%

    Pasado mañana, 19 Octubre, Viernes

    Tiempo Temperatura Precipitaciones Viento Presión Humedad
    00:00 +19°C° 0 mm 1 mps 754 mmHg 54%
    01:00 +19°C° 0 mm 1 mps 754 mmHg 53%
    02:00 +19°C° 0 mm 1 mps 754 mmHg 53%
    03:00 +18°C° 0 mm 1 mps 754 mmHg 53%
    04:00 +18°C° 0 mm 1 mps 754 mmHg 53%
    05:00 +19°C° 0 mm 1 mps 754 mmHg 53%
    06:00 +18°C° 0 mm 2 mps 754 mmHg 52%
    07:00 +19°C° 0 mm 2 mps 755 mmHg 51%
    08:00 +22°C° 0 mm 1 mps 755 mmHg 45%
    09:00 +25°C° 0 mm 1 mps 755 mmHg 39%
    10:00 +27°C° 0 mm 1 mps 755 mmHg 33%
    11:00 +28°C° 0 mm 2 mps 754 mmHg 32%
    12:00 +28°C° 0 mm 2 mps 754 mmHg 31%
    13:00 +29°C° 0 mm 3 mps 754 mmHg 30%
    14:00 +28°C° 0 mm 3 mps 754 mmHg 33%
    15:00 +27°C° 0 mm 3 mps 754 mmHg 36%
    16:00 +26°C° 0 mm 4 mps 754 mmHg 39%
    17:00 +24°C° 0 mm 3 mps 754 mmHg 44%
    18:00 +21°C° 0 mm 3 mps 755 mmHg 49%
    19:00 +19°C° 0 mm 2 mps 755 mmHg 55%
    20:00 +19°C° 0 mm 2 mps 755 mmHg 54%
    21:00 +19°C° 0 mm 2 mps 755 mmHg 54%
    22:00 +18°C° 0 mm 2 mps 756 mmHg 53%
    23:00 +18°C° 0 mm 2 mps 756 mmHg 54%

    20 Octubre, Sábado

    Tiempo Temperatura Precipitaciones Viento Presión Humedad
    00:00 +18°C° 0 mm 2 mps 756 mmHg 54%
    01:00 +18°C° 0 mm 2 mps 756 mmHg 54%
    02:00 +18°C° 0 mm 2 mps 756 mmHg 55%
    03:00 +17°C° 0 mm 2 mps 756 mmHg 56%
    04:00 +17°C° 0 mm 2 mps 756 mmHg 57%
    05:00 +17°C° 0 mm 2 mps 756 mmHg 57%
    06:00 +18°C° 0 mm 2 mps 756 mmHg 58%
    07:00 +18°C° 0 mm 2 mps 756 mmHg 58%
    08:00 +21°C° 0 mm 2 mps 756 mmHg 51%
    09:00 +24°C° 0 mm 2 mps 756 mmHg 44%
    10:00 +27°C° 0 mm 2 mps 756 mmHg 37%
    11:00 +27°C° 0 mm 3 mps 756 mmHg 36%
    12:00 +28°C° 0 mm 3 mps 756 mmHg 34%
    13:00 +28°C° 0 mm 4 mps 756 mmHg 33%
    14:00 +27°C° 0 mm 4 mps 756 mmHg 35%
    15:00 +27°C° 0 mm 4 mps 755 mmHg 38%
    16:00 +26°C° 0 mm 5 mps 755 mmHg 41%
    17:00 +23°C° 0 mm 4 mps 756 mmHg 46%
    18:00 +21°C° 0 mm 4 mps 756 mmHg 50%
    19:00 +20°C° 0 mm 4 mps 756 mmHg 55%
    20:00 +19°C° 0 mm 4 mps 757 mmHg 54%
    21:00 +19°C° 0 mm 4 mps 757 mmHg 54%
    22:00 +18°C° 0 mm 3 mps 757 mmHg 54%
    23:00 +18°C° 0 mm 3 mps 757 mmHg 54%

    21 Octubre, Domingo

    Tiempo Temperatura Precipitaciones Viento Presión Humedad
    00:00 +18°C° 0 mm 3 mps 757 mmHg 54%
    01:00 +17°C° 0 mm 3 mps 757 mmHg 55%
    02:00 +17°C° 0 mm 3 mps 757 mmHg 56%
    03:00 +16°C° 0 mm 3 mps 757 mmHg 57%
    04:00 +16°C° 0 mm 3 mps 757 mmHg 59%
    05:00 +16°C° 0 mm 3 mps 757 mmHg 59%
    06:00 +16°C° 0 mm 3 mps 757 mmHg 59%
    07:00 +17°C° 0 mm 3 mps 757 mmHg 59%
    08:00 +19°C° 0 mm 3 mps 757 mmHg 52%
    09:00 +21°C° 0 mm 3 mps 757 mmHg 45%
    10:00 +24°C° 0 mm 3 mps 756 mmHg 39%
    11:00 +25°C° 0 mm 3 mps 756 mmHg 36%
    12:00 +26°C° 0 mm 3 mps 756 mmHg 34%
    13:00 +26°C° 0 mm 3 mps 755 mmHg 32%
    14:00 +26°C° 0 mm 4 mps 755 mmHg 34%
    15:00 +25°C° 0 mm 4 mps 755 mmHg 37%
    16:00 +23°C° 0 mm 5 mps 754 mmHg 39%
    17:00 +21°C° 0 mm 4 mps 754 mmHg 44%
    18:00 +20°C° 0 mm 4 mps 755 mmHg 50%
    19:00 +18°C° 0 mm 4 mps 755 mmHg 55%
    20:00 +17°C° 0 mm 4 mps 755 mmHg 57%
    21:00 +17°C° 0 mm 3 mps 755 mmHg 58%
    22:00 +17°C° 0 mm 3 mps 755 mmHg 60%
    23:00 +16°C° 0 mm 2 mps 754 mmHg 61%

    22 Octubre, Lunes

    Tiempo Temperatura Precipitaciones Viento Presión Humedad
    00:00 +16°C° 0 mm 2 mps 754 mmHg 62%
    01:00 +15°C° 0 mm 2 mps 754 mmHg 63%
    02:00 +15°C° 0.1 mm 2 mps 754 mmHg 63%
    03:00 +15°C° 0.1 mm 2 mps 753 mmHg 64%
    04:00 +15°C° 0.1 mm 2 mps 753 mmHg 64%
    05:00 +15°C° 0.2 mm 2 mps 753 mmHg 63%
    06:00 +16°C° 0.2 mm 2 mps 753 mmHg 62%
    07:00 +16°C° 0.2 mm 2 mps 753 mmHg 62%
    08:00 +17°C° 0.3 mm 2 mps 753 mmHg 58%
    09:00 +19°C° 0.3 mm 2 mps 753 mmHg 54%
    10:00 +20°C° 0.3 mm 2 mps 753 mmHg 51%
    11:00 +21°C° 0.3 mm 3 mps 753 mmHg 50%
    12:00 +21°C° 0.3 mm 3 mps 752 mmHg 50%
    13:00 +21°C° 0.3 mm 3 mps 752 mmHg 50%
    14:00 +21°C° 0.5 mm 3 mps 752 mmHg 55%
    15:00 +20°C° 0.5 mm 3 mps 752 mmHg 59%
    16:00 +19°C° 0.5 mm 2 mps 752 mmHg 64%
    17:00 +18°C° 0.3 mm 2 mps 752 mmHg 70%
    18:00 +17°C° 0.3 mm 2 mps 752 mmHg 75%
    19:00 +15°C° 0.3 mm 2 mps 752 mmHg 81%
    20:00 +15°C° 0.4 mm 2 mps 752 mmHg 81%
    21:00 +15°C° 0.4 mm 2 mps 752 mmHg 81%
    22:00 +15°C° 0.4 mm 2 mps 752 mmHg 81%
    23:00 +14°C° 0.5 mm 3 mps 752 mmHg 80%
    Mostrar más